Location: Zagreb
(45.8000°N, 16.0000°E)
Time: 11:21:29
(UTC+02:00)

Vanguard 2 Rocket - Visible Passes

Search period start: 15 July 2024 00:00
Search period end: 25 July 2024 00:00
Orbit: 555 x 3303 km, 32.9° (Epoch: 14 July)

Date Brightness Start Highest point End Pass type
(mag) Time Alt. Az. Time Alt. Az. Time Alt. Az.
15 Jul 9.0 00:35:07 10° WSW 00:45:24 43° S 01:01:27 10° SE visible
15 Jul 9.7 02:48:50 10° W 03:00:30 30° SSW 03:15:43 10° SSE visible
15 Jul 8.5 21:22:11 10° SW 21:28:37 32° SSE 21:38:54 10° ESE visible
15 Jul 8.8 23:33:00 10° WSW 23:41:52 43° S 23:56:25 10° ESE visible
16 Jul 9.4 01:45:41 10° WSW 01:56:33 34° SSW 02:12:04 10° SE visible
16 Jul 10.1 04:02:23 10° WSW 04:11:29 17° SW 04:22:00 10° S visible
16 Jul 8.5 22:31:12 10° WSW 22:38:43 40° S 22:51:15 10° ESE visible
17 Jul 9.1 00:43:04 10° WSW 00:52:48 38° SSW 01:07:46 10° SE visible
17 Jul 9.8 02:57:35 10° WSW 03:07:38 23° SSW 03:20:24 10° SSE visible
17 Jul 8.4 21:29:42 10° SW 21:35:59 34° SSE 21:46:09 10° ESE visible
17 Jul 8.8 23:40:52 10° WSW 23:49:20 39° S 23:57:27 22° SE visible
18 Jul 9.5 01:54:02 10° WSW 02:12:21 18° SSE 02:17:26 10° SSE visible
18 Jul 10.3 04:18:23 11° SW 04:18:31 11° SW 04:21:38 10° SSW visible
18 Jul 8.5 22:38:59 10° WSW 22:46:12 38° S 22:55:10 17° ESE visible
19 Jul 9.2 00:51:12 10° WSW 01:00:12 31° SSW 01:00:31 31° SSW visible
19 Jul 10.2 03:23:14 10° S 03:23:14 10° S 03:23:40 10° S visible
19 Jul 8.3 21:37:23 10° SW 21:43:26 34° S 21:53:14 10° ESE visible
19 Jul 8.9 23:48:52 10° WSW 23:56:48 33° S 23:59:35 31° SSE visible
20 Jul 9.9 02:02:55 10° WSW 02:26:48 - SSE 02:04:59 14° WSW visible
20 Jul 8.6 22:46:52 10° WSW 22:53:42 34° S 22:59:07 23° SE visible
21 Jul 9.4 00:59:39 10° WSW 01:04:32 22° SW 01:04:32 22° SW visible
21 Jul 8.4 21:45:09 10° WSW 21:50:55 32° S 21:58:53 13° ESE visible
21 Jul 9.1 23:57:03 10° WSW 00:04:17 27° SSW 00:04:19 27° SSW visible
22 Jul 8.7 22:54:54 10° WSW 23:01:13 28° S 23:04:16 25° SSE visible
23 Jul 9.8 01:08:47 10° WSW 01:09:44 12° SW 01:09:44 12° SW visible
23 Jul 8.5 21:53:02 10° WSW 21:58:27 28° S 22:04:21 16° SE visible
24 Jul 9.3 00:05:39 10° WSW 00:09:48 19° SSW 00:09:48 19° SSW visible
24 Jul 9.0 23:03:11 10° WSW 23:08:45 22° SSW 23:09:59 21° S visible
